Location: Unspecified
(40.4667°N, 0.0000°E)
Time: 12:32:54
(UTC+00:00)

ISS - Visible Passes

Search period start: 17 October 2019 00:00
Search period end: 27 October 2019 00:00
Orbit: 411 x 421 km, 51.6° (Epoch: 17 October)

Date Brightness Start Highest point End Pass type
(mag) Time Alt. Az. Time Alt. Az. Time Alt. Az.
23 Oct -1.6 05:34:23 10° SSW 05:37:18 27° SE 05:40:13 10° ENE visible
24 Oct -0.9 04:46:45 10° S 04:48:53 16° SE 04:51:01 10° E visible
25 Oct -3.7 05:33:21 10° SW 05:36:43 82° SE 05:40:05 10° NE visible
26 Oct -2.8 04:46:47 27° SSW 04:48:11 45° SE 04:51:25 10° ENE visible
